Retour au catalogue

STARLINK-37724

ActifCommunicationsSSO
NORAD 69218·PAYLOAD·🇺🇸 United States

Lancé May 26, 2026 depuis Vandenberg Space Force Base

Loading…

Prochains Passages (prochaines 24 heures)

TLE

FraisSource: CelesTrak SupGP

Époque: Sep 15, 2026, 04:25 UTC

1 69218C 26115H   26258.18451389 -.00062155  00000+0 -19300-2 0  2586
2 69218  97.2831 274.3309 0001297  91.2692 285.6732 15.33461479    11

Suivez STARLINK-37724 en temps réel avec AllMySat

Download on the App Store